QPF
0.00 0.00 0.00 0.00 0.00 0.00 0.00 0.00 0.00 0.00 0.00 0.00 0.00 0.00 0.00 0.00 0.00 0.00 0.00 0.00 0.00 0.00 0.00 0.00 0.00 0.00 0.00 0.00 0.00 0.01 0.09 0.15 0.13 0.13 0.10 0.06 0.01 0.01
0.00 0.00 0.00 0.00 0.00 0.00 0.00 0.00 0.00 0.00 0.00 0.00 0.00 0.00 0.00 0.00 0.00 0.00 0.00 0.00 0.00 0.00 0.00 0.00 0.00 0.00 0.00 0.00 0.00 0.00 0.02 0.08 0.07 0.07 0.08 0.06 0.02 0.00
0.00 0.00 0.00 0.00 0.00 0.00 0.00 0.00 0.00 0.00 0.00 0.00 0.00 0.00 0.00 0.00 0.00 0.00 0.00 0.00 0.00 0.00 0.00 0.00 0.00 0.00 0.00 0.00 0.00 0.00 0.00 0.02 0.05 0.04 0.06 0.05 0.03 0.00
0.00 0.00 0.00 0.00 0.00 0.00 0.00 0.00 0.00 0.00 0.00 0.00 0.00 0.00 0.00 0.00 0.00 0.00 0.00 0.00 0.00 0.00 0.00 0.00 0.00 0.00 0.00 0.00 0.00 0.00 0.00 0.00 0.01 0.03 0.05 0.06 0.04 0.03
0.00 0.00 0.00 0.00 0.00 0.00 0.00 0.00 0.00 0.00 0.00 0.00 0.00 0.00 0.00 0.00 0.00 0.00 0.00 0.00 0.00 0.00 0.01 0.00 0.00 0.00 0.00 0.00 0.00 0.00 0.00 0.00 0.00 0.03 0.04 0.06 0.06 0.06
0.00 0.00 0.00 0.00 0.00 0.00 0.00 0.00 0.00 0.00 0.00 0.00 0.00 0.00 0.00 0.00 0.00 0.00 0.00 0.00 0.00 0.00 0.00 0.00 0.00 0.00 0.00 0.00 0.00 0.00 0.00 0.00 0.00 0.03 0.05 0.04 0.07 0.08
0.00 0.00 0.00 0.00 0.01 0.01 0.01 0.00 0.00 0.00 0.00 0.00 0.00 0.00 0.00 0.00 0.00 0.00 0.00 0.00 0.00 0.00 0.00 0.00 0.00 0.00 0.00 0.00 0.00 0.00 0.00 0.00 0.00 0.02 0.07 0.03 0.07 0.09
0.00 0.00 0.00 0.00 0.00 0.00 0.01 0.01 0.00 0.00 0.00 0.00 0.00 0.00 0.00 0.00 0.00 0.00 0.00 0.00 0.00 0.00 0.00 0.00 0.00 0.00 0.00 0.00 0.00 0.00 0.00 0.00 0.00 0.00 0.04 0.07 0.06 0.08
0.00 0.00 0.00 0.00 0.00 0.00 0.00 0.00 0.00 0.00 0.00 0.00 0.00 0.00 0.00 0.00 0.00 0.00 0.00 0.00 0.00 0.00 0.00 0.00 0.00 0.00 0.00 0.00 0.00 0.00 0.00 0.00 0.00 0.00 0.01 0.04 0.06 0.06
0.00 0.00 0.00 0.00 0.00 0.01 0.00 0.00 0.00 0.00 0.00 0.00 0.00 0.00 0.00 0.00 0.00 0.00 0.00 0.00 0.00 0.00 0.00 0.00 0.00 0.00 0.00 0.00 0.00 0.00 0.00 0.00 0.00 0.00 0.00 0.01 0.03 0.05
0.00 0.00 0.00 0.00 0.00 0.01 0.00 0.00 0.00 0.00 0.00 0.00 0.00 0.00 0.00 0.00 0.00 0.00 0.00 0.00 0.00 0.00 0.00 0.00 0.00 0.00 0.00 0.00 0.00 0.00 0.00 0.00 0.00 0.00 0.00 0.00 0.01 0.02
0.00 0.00 0.00 0.00 0.00 0.00 0.00 0.00 0.00 0.00 0.00 0.00 0.00 0.00 0.00 0.00 0.00 0.00 0.00 0.00 0.00 0.00 0.00 0.00 0.00 0.00 0.00 0.00 0.00 0.00 0.00 0.00 0.00 0.00 0.00 0.00 0.00 0.00
0.00 0.00 0.00 0.00 0.00 0.00 0.00 0.00 0.00 0.00 0.00 0.00 0.00 0.00 0.00 0.00 0.00 0.00 0.00 0.00 0.00 0.00 0.00 0.00 0.00 0.00 0.00 0.00 0.00 0.00 0.00 0.00 0.00 0.00 0.00 0.00 0.00 0.00
0.00 0.00 0.00 0.00 0.00 0.00 0.00 0.00 0.00 0.00 0.00 0.00 0.00 0.00 0.00 0.00 0.00 0.00 0.00 0.00 0.00 0.00 0.00 0.00 0.00 0.00 0.00 0.00 0.00 0.00 0.00 0.00 0.00 0.00 0.00 0.00 0.00 0.00
0.00 0.00 0.00 0.00 0.00 0.00 0.00 0.00 0.00 0.00 0.00 0.00 0.00 0.00 0.00 0.00 0.00 0.00 0.00 0.00 0.00 0.00 0.00 0.00 0.00 0.00 0.00 0.00 0.00 0.00 0.00 0.00 0.00 0.00 0.00 0.00 0.00 0.00
0.00 0.00 0.00 0.00 0.00 0.00 0.00 0.00 0.00 0.00 0.00 0.00 0.00 0.00 0.00 0.00 0.00 0.00 0.00 0.00 0.00 0.00 0.00 0.00 0.00 0.00 0.00 0.00 0.00 0.00 0.00 0.00 0.00 0.00 0.00 0.00 0.00 0.00
0.00 0.00 0.00 0.00 0.00 0.00 0.00 0.00 0.00 0.00 0.00 0.00 0.00 0.00 0.00 0.00 0.00 0.00 0.00 0.00 0.00 0.00 0.00 0.00 0.00 0.00 0.00 0.00 0.00 0.00 0.00 0.00 0.00 0.00 0.00 0.00 0.00 0.00
0.00 0.00 0.00 0.00 0.00 0.00 0.00 0.00 0.00 0.00 0.00 0.00 0.00 0.00 0.00 0.00 0.00 0.00 0.00 0.00 0.00 0.00 0.00 0.00 0.00 0.00 0.00 0.00 0.00 0.00 0.00 0.00 0.00 0.00 0.00 0.00 0.00 0.00
0.00 0.00 0.00 0.00 0.00 0.00 0.00 0.00 0.00 0.00 0.00 0.00 0.00 0.00 0.00 0.00 0.00 0.00 0.00 0.00 0.00 0.00 0.00 0.00 0.00 0.00 0.00 0.00 0.00 0.00 0.00 0.00 0.00 0.00 0.00 0.00 0.00 0.00
0.00 0.00 0.00 0.00 0.00 0.00 0.00 0.00 0.00 0.00 0.00 0.00 0.00 0.00 0.00 0.00 0.00 0.00 0.00 0.00 0.00 0.00 0.00 0.00 0.00 0.00 0.00 0.00 0.00 0.00 0.00 0.00 0.00 0.00 0.00 0.00 0.00 0.00
0.00 0.00 0.00 0.00 0.00 0.00 0.00 0.00 0.00 0.00 0.00 0.00 0.00 0.00 0.00 0.00 0.00 0.00 0.00 0.00 0.00 0.00 0.00 0.00 0.00 0.00 0.00 0.00 0.00 0.00 0.00 0.00 0.00 0.00 0.00 0.00 0.00 0.00
0.00 0.00 0.00 0.00 0.00 0.00 0.00 0.00 0.00 0.00 0.00 0.00 0.00 0.00 0.00 0.00 0.00 0.00 0.00 0.00 0.00 0.00 0.00 0.00 0.00 0.00 0.00 0.00 0.00 0.00 0.00 0.00 0.00 0.00 0.00 0.00 0.00 0.00
0.00 0.00 0.00 0.00 0.00 0.00 0.00 0.00 0.00 0.00 0.00 0.00 0.00 0.00 0.00 0.00 0.00 0.00 0.00 0.00 0.00 0.00 0.00 0.00 0.00 0.00 0.00 0.00 0.00 0.00 0.00 0.00 0.00 0.00 0.00 0.00 0.00 0.00
MSLP
1024.36 1023.94 1023.63 1023.23 1022.92 1022.68 1022.56 1022.30 1022.03 1021.22 1020.42 1019.72 1019.46 1018.65 1018.43 1017.99 1017.44 1016.86 1016.56 1016.05 1015.46 1015.07 1014.68 1014.11 1013.64 1013.94 1013.39 1013.75 1011.84 1010.93 1010.66 1011.79 1012.91 1013.91 1014.76 1015.75 1016.74 1017.67
1024.03 1023.67 1023.27 1022.94 1022.72 1022.48 1022.28 1022.17 1022.08 1021.73 1020.91 1020.02 1019.50 1019.07 1018.55 1017.87 1017.22 1016.66 1016.30 1015.61 1015.28 1014.73 1014.30 1014.62 1014.41 1013.81 1014.40 1013.23 1012.22 1011.56 1012.14 1013.06 1013.81 1014.61 1015.07 1015.76 1016.62 1017.46
1023.77 1023.46 1023.03 1022.73 1022.53 1022.30 1022.05 1021.88 1021.74 1021.49 1020.86 1019.79 1019.44 1019.05 1018.58 1017.89 1017.22 1016.51 1016.10 1015.71 1015.14 1014.63 1014.30 1013.95 1014.23 1014.35 1013.85 1013.25 1013.07 1012.69 1012.91 1013.60 1014.20 1014.92 1015.53 1015.86 1016.55 1017.37
1023.66 1023.23 1022.86 1022.52 1022.29 1022.02 1021.74 1021.50 1021.30 1021.03 1020.74 1019.99 1019.29 1019.14 1018.63 1017.79 1017.18 1016.78 1016.17 1015.54 1015.15 1014.46 1014.08 1014.07 1013.80 1013.67 1013.45 1013.65 1013.91 1013.00 1012.48 1013.55 1014.82 1015.15 1015.62 1016.09 1016.47 1017.30
1023.56 1023.14 1022.77 1022.36 1021.99 1021.60 1021.22 1021.07 1020.71 1020.32 1020.14 1019.85 1019.22 1018.85 1018.71 1017.83 1017.15 1016.77 1016.30 1015.85 1015.24 1014.48 1013.80 1013.84 1014.01 1014.21 1014.31 1014.03 1014.00 1013.96 1014.33 1014.77 1015.34 1015.12 1015.59 1016.03 1016.40 1017.14
1023.53 1023.09 1022.63 1022.13 1021.57 1021.00 1020.57 1020.17 1019.93 1019.80 1019.60 1019.35 1019.07 1018.99 1018.85 1018.15 1017.73 1017.36 1016.65 1016.10 1015.61 1014.74 1014.22 1014.05 1014.14 1014.49 1014.68 1014.72 1014.67 1014.51 1014.83 1014.77 1014.51 1014.92 1015.57 1015.85 1016.34 1017.08
1023.49 1022.98 1022.39 1021.69 1021.01 1020.58 1019.96 1019.51 1019.37 1019.20 1019.01 1018.81 1018.85 1019.01 1018.78 1018.54 1018.21 1017.64 1017.04 1016.27 1015.52 1015.12 1014.81 1014.75 1014.66 1014.65 1014.87 1014.91 1015.05 1015.07 1015.12 1015.12 1015.35 1015.39 1015.50 1015.86 1016.55 1017.09
1023.47 1022.80 1022.14 1021.45 1020.84 1020.18 1019.56 1019.14 1018.80 1018.57 1018.18 1018.36 1018.40 1018.51 1018.32 1018.12 1017.76 1017.30 1016.86 1016.29 1015.60 1015.30 1015.17 1015.12 1015.16 1015.15 1014.85 1014.97 1014.91 1015.38 1014.93 1014.51 1015.08 1016.00 1015.89 1016.35 1016.67 1017.46
1023.39 1022.74 1022.01 1021.30 1020.63 1019.80 1019.27 1018.79 1018.40 1018.10 1017.89 1017.79 1017.75 1017.81 1017.58 1017.41 1017.26 1017.01 1016.74 1016.34 1015.77 1015.65 1015.46 1015.18 1014.99 1015.47 1015.03 1014.69 1014.89 1014.90 1014.86 1015.05 1015.36 1015.89 1016.12 1016.66 1016.92 1017.77
1023.30 1022.70 1022.02 1021.20 1020.52 1019.69 1019.07 1018.53 1018.03 1017.60 1017.29 1017.12 1016.95 1016.77 1016.59 1016.55 1016.63 1016.58 1016.55 1016.39 1015.85 1015.64 1015.52 1015.53 1015.30 1015.19 1015.64 1015.53 1015.79 1015.29 1015.16 1015.17 1015.35 1016.13 1016.28 1016.47 1017.19 1017.95
1023.19 1022.64 1021.97 1021.20 1020.43 1019.70 1019.03 1018.46 1017.80 1017.21 1016.76 1016.35 1016.05 1015.84 1015.74 1015.75 1015.97 1016.19 1016.30 1016.17 1015.76 1015.71 1015.77 1015.62 1015.48 1015.45 1015.43 1015.77 1015.32 1015.48 1015.54 1015.30 1015.66 1015.86 1016.27 1016.21 1016.77 1018.27
1023.27 1022.61 1021.99 1021.26 1020.47 1019.79 1019.16 1018.56 1017.86 1017.23 1016.63 1016.04 1015.60 1015.49 1015.49 1015.46 1015.63 1015.68 1015.68 1015.93 1015.92 1015.84 1015.93 1016.02 1015.95 1015.84 1015.60 1015.32 1015.62 1015.42 1015.02 1015.36 1016.35 1016.33 1016.86 1017.51 1017.63 1018.26
1023.64 1022.90 1022.22 1021.40 1020.63 1019.98 1019.33 1018.71 1018.09 1017.32 1016.58 1016.01 1015.57 1015.32 1015.39 1015.45 1015.47 1015.55 1015.56 1015.78 1015.95 1016.14 1016.05 1016.01 1016.07 1016.20 1015.95 1016.13 1016.06 1015.47 1015.14 1015.72 1016.06 1016.62 1017.09 1017.29 1016.95 1017.89
1024.21 1023.46 1022.65 1021.74 1021.00 1020.32 1019.61 1018.90 1018.13 1017.43 1016.85 1016.34 1015.97 1015.72 1015.62 1015.66 1015.72 1015.64 1015.54 1015.61 1015.91 1015.95 1015.72 1015.96 1016.16 1016.13 1016.15 1016.58 1016.37 1016.19 1016.12 1015.78 1015.88 1016.73 1017.70 1018.22 1018.15 1018.72
1024.71 1023.86 1023.02 1022.21 1021.55 1020.80 1020.11 1019.36 1018.64 1018.05 1017.46 1016.95 1016.53 1016.15 1015.93 1015.94 1015.77 1015.78 1015.93 1016.04 1016.01 1015.85 1015.63 1015.55 1015.82 1016.34 1016.50 1016.29 1016.67 1016.86 1016.64 1017.01 1017.17 1017.26 1018.09 1018.58 1018.83 1019.19
1025.28 1024.52 1023.78 1022.98 1022.31 1021.65 1020.77 1020.08 1019.50 1018.90 1018.30 1017.69 1017.14 1016.76 1016.52 1016.28 1016.26 1016.26 1016.19 1016.16 1016.28 1016.55 1016.30 1016.09 1016.01 1016.13 1016.34 1016.63 1016.94 1017.62 1017.75 1018.13 1018.52 1018.50 1019.19 1019.74 1019.96 1020.22
1025.99 1025.28 1024.49 1023.69 1023.11 1022.50 1021.82 1021.11 1020.38 1019.66 1019.03 1018.50 1017.89 1017.45 1017.18 1017.09 1016.93 1016.83 1016.65 1016.75 1016.93 1017.22 1017.25 1017.27 1017.30 1017.05 1017.30 1017.55 1018.05 1018.54 1018.54 1018.81 1019.16 1019.36 1019.56 1020.63 1021.33 1021.68
1026.78 1026.39 1025.84 1025.20 1024.66 1024.01 1023.26 1022.38 1021.50 1020.76 1020.13 1019.52 1018.95 1018.48 1018.09 1017.88 1017.87 1017.74 1017.81 1017.92 1017.98 1018.00 1017.93 1017.91 1017.96 1017.84 1017.63 1018.46 1019.17 1019.35 1019.51 1019.83 1020.03 1020.29 1020.66 1021.04 1022.57 1023.02
1027.97 1027.56 1027.07 1026.47 1025.86 1025.19 1024.42 1023.69 1022.83 1021.92 1021.07 1020.46 1019.96 1019.58 1019.29 1019.06 1018.81 1018.90 1019.05 1018.78 1018.64 1018.62 1018.76 1018.76 1018.46 1018.09 1018.57 1019.77 1020.67 1020.68 1020.44 1020.60 1020.69 1021.12 1021.41 1021.75 1023.35 1024.27
1029.00 1028.74 1028.17 1027.58 1026.89 1026.22 1025.46 1024.68 1023.74 1022.78 1022.03 1021.49 1020.91 1020.47 1020.21 1020.18 1020.20 1019.89 1019.59 1019.57 1019.54 1019.67 1019.64 1019.66 1019.48 1019.40 1019.35 1020.15 1021.40 1022.20 1021.31 1021.28 1021.40 1022.00 1022.69 1023.38 1024.24 1024.74
1030.10 1029.63 1029.20 1028.49 1027.77 1027.04 1026.29 1025.50 1024.75 1023.94 1023.22 1022.58 1022.05 1021.62 1021.28 1020.84 1020.53 1020.52 1020.75 1020.62 1020.43 1020.62 1020.88 1021.05 1021.06 1020.76 1020.66 1020.73 1021.74 1022.64 1023.07 1022.87 1022.62 1022.70 1023.63 1023.89 1024.82 1025.79
1031.24 1030.67 1030.07 1029.38 1028.65 1027.91 1027.09 1026.31 1025.51 1024.80 1024.25 1023.69 1023.22 1022.73 1022.31 1021.97 1021.79 1021.68 1021.68 1021.62 1021.86 1022.03 1022.09 1022.00 1021.83 1021.63 1021.80 1021.93 1022.75 1023.45 1024.04 1024.41 1024.49 1024.35 1024.35 1024.14 1024.87 1026.18
1032.22 1031.65 1030.97 1030.26 1029.47 1028.77 1028.01 1027.25 1026.53 1025.90 1025.30 1024.73 1024.16 1023.69 1023.34 1023.05 1022.97 1022.80 1022.73 1022.70 1022.62 1022.62 1022.95 1023.04 1023.24 1023.23 1023.53 1023.77 1024.04 1024.56 1024.79 1025.37 1025.69 1025.93 1026.61 1026.59 1026.45 1027.29
Thickness
5246 5242 5239 5235 5232 5229 5225 5225 5225 5229 5238 5246 5255 5273 5286 5299 5315 5333 5350 5368 5388 5408 5429 5452 5472 5482 5506 5516 5549 5567 5580 5583 5585 5592 5600 5605 5608 5611
5245 5239 5236 5233 5230 5226 5222 5219 5218 5222 5227 5238 5251 5264 5279 5294 5312 5331 5348 5366 5385 5406 5426 5441 5462 5482 5493 5514 5539 5556 5565 5569 5575 5581 5592 5599 5605 5610
5243 5238 5236 5232 5226 5222 5220 5217 5216 5218 5224 5237 5246 5259 5273 5290 5309 5328 5345 5363 5383 5403 5421 5441 5458 5473 5491 5510 5527 5545 5551 5560 5568 5575 5586 5595 5601 5607
5241 5237 5233 5229 5224 5220 5217 5216 5214 5216 5219 5228 5243 5252 5267 5286 5305 5322 5341 5359 5378 5400 5419 5437 5457 5474 5489 5502 5515 5538 5555 5556 5559 5569 5583 5590 5600 5605
5240 5235 5230 5226 5222 5219 5217 5214 5214 5217 5220 5227 5238 5252 5262 5282 5304 5319 5337 5355 5374 5396 5418 5436 5451 5465 5477 5494 5510 5527 5537 5547 5554 5568 5579 5588 5598 5604
5238 5233 5228 5223 5221 5219 5217 5216 5215 5217 5219 5226 5236 5247 5256 5278 5296 5315 5333 5352 5371 5393 5414 5432 5447 5460 5474 5489 5503 5516 5531 5544 5560 5568 5577 5587 5596 5601
5236 5231 5226 5223 5221 5219 5218 5217 5215 5215 5217 5225 5233 5242 5257 5272 5295 5313 5331 5351 5373 5391 5410 5427 5443 5458 5471 5485 5497 5511 5528 5540 5550 5564 5575 5585 5592 5598
5234 5229 5225 5221 5219 5218 5218 5216 5216 5216 5221 5225 5233 5246 5263 5274 5298 5317 5334 5354 5375 5387 5408 5424 5439 5455 5471 5485 5498 5508 5527 5541 5551 5557 5570 5578 5588 5593
5231 5227 5224 5221 5219 5219 5217 5216 5215 5216 5219 5225 5235 5249 5268 5285 5300 5318 5336 5354 5375 5388 5404 5424 5440 5451 5470 5487 5498 5509 5522 5533 5544 5556 5567 5574 5583 5587
5230 5226 5223 5222 5220 5220 5218 5216 5215 5217 5221 5227 5239 5258 5277 5295 5310 5326 5340 5356 5374 5390 5405 5423 5438 5454 5463 5478 5489 5507 5519 5533 5543 5551 5563 5574 5578 5582
5231 5226 5223 5222 5222 5221 5220 5218 5218 5220 5225 5235 5250 5268 5286 5304 5318 5332 5345 5361 5379 5393 5403 5422 5438 5452 5465 5475 5493 5503 5516 5531 5539 5550 5561 5573 5578 5576
5232 5228 5224 5224 5225 5224 5221 5220 5221 5224 5231 5243 5259 5277 5294 5311 5324 5339 5353 5366 5381 5395 5405 5420 5433 5448 5465 5479 5489 5502 5516 5523 5524 5541 5551 5556 5563 5570
5232 5229 5227 5228 5228 5227 5225 5224 5225 5230 5239 5251 5268 5286 5302 5317 5332 5345 5359 5371 5383 5394 5405 5420 5433 5445 5461 5472 5484 5502 5513 5519 5527 5538 5545 5553 5566 5570
5232 5229 5228 5231 5231 5230 5230 5231 5234 5239 5247 5259 5275 5292 5308 5322 5335 5349 5363 5376 5386 5398 5411 5420 5431 5445 5458 5466 5482 5495 5507 5519 5527 5532 5533 5540 5550 5557
5233 5230 5231 5233 5234 5234 5236 5239 5241 5247 5256 5267 5282 5298 5313 5326 5341 5353 5365 5377 5389 5401 5414 5425 5435 5441 5451 5468 5477 5486 5500 5506 5515 5525 5531 5536 5545 5551
5235 5233 5233 5235 5236 5237 5241 5244 5248 5254 5264 5275 5289 5303 5316 5330 5342 5353 5367 5379 5390 5398 5410 5422 5433 5442 5453 5462 5471 5478 5487 5495 5502 5514 5518 5524 5531 5540
5234 5234 5235 5238 5239 5241 5244 5248 5254 5262 5271 5280 5293 5306 5318 5329 5342 5353 5366 5376 5386 5395 5405 5413 5421 5433 5443 5453 5460 5467 5477 5485 5492 5502 5512 5513 5517 5525
5236 5235 5234 5235 5236 5239 5243 5250 5257 5265 5274 5283 5294 5306 5318 5329 5339 5351 5361 5370 5380 5389 5399 5408 5416 5428 5441 5444 5448 5458 5465 5471 5480 5490 5498 5506 5504 5509
5237 5234 5233 5234 5236 5240 5244 5249 5256 5265 5276 5285 5295 5304 5313 5324 5335 5344 5352 5364 5376 5385 5393 5402 5414 5428 5433 5431 5434 5442 5453 5461 5470 5478 5487 5496 5492 5495
5238 5234 5232 5233 5237 5240 5245 5251 5258 5267 5276 5285 5294 5303 5312 5319 5326 5337 5348 5357 5368 5376 5386 5395 5406 5415 5425 5426 5424 5427 5442 5451 5459 5464 5469 5476 5478 5483
5238 5236 5234 5235 5238 5242 5247 5253 5259 5266 5274 5282 5291 5299 5307 5317 5326 5333 5339 5349 5359 5367 5374 5381 5391 5403 5411 5417 5417 5419 5425 5434 5444 5453 5456 5464 5467 5467
5237 5236 5236 5237 5239 5243 5248 5254 5260 5267 5272 5279 5286 5295 5303 5311 5319 5326 5334 5342 5348 5354 5361 5371 5382 5392 5399 5406 5406 5409 5412 5417 5425 5435 5442 5454 5459 5455
5238 5238 5238 5238 5241 5243 5247 5253 5258 5264 5271 5277 5285 5292 5299 5306 5312 5318 5324 5331 5339 5346 5352 5359 5365 5374 5380 5387 5393 5397 5403 5405 5410 5417 5420 5427 5436 5438